This is the latest recevied weather packets stored in our database for station/object N3WGC-14. If no packets are shown the sender has not sent any weather packets the latest 1 day(s).
| Time | Temp. | Humidity | Pressure | Rain* | Wind** | Luminosity | Snow |
|---|---|---|---|---|---|---|---|
| 1778045691 | 20° C | 77% | 1011 hPa | 0 mm | 0.89 m/s, 63° | - | - |
| 1778045390 | 20° C | 77% | 1011 hPa | 0 mm | 0.89 m/s, 247° | - | - |
| 1778045090 | 20° C | 78% | 1011 hPa | 0 mm | 0.89 m/s, 116° | - | - |
| 1778044790 | 20° C | 78% | 1011.1 hPa | 0 mm | 0.89 m/s, 89° | - | - |
| 1778044490 | 20° C | 77% | 1011.1 hPa | 0 mm | 0.45 m/s, 91° | - | - |
| 1778044190 | 20° C | 77% | 1011.1 hPa | 0 mm | 0.89 m/s, 101° | - | - |
| 1778043890 | 20° C | 77% | 1011.2 hPa | 0 mm | 0.45 m/s, 69° | - | - |
| 1778043590 | 20° C | 77% | 1011.1 hPa | 0 mm | 0.89 m/s, 289° | - | - |
| 1778043289 | 20° C | 76% | 1011.1 hPa | 0 mm | 0.89 m/s, 198° | - | - |
| 1778042989 | 20.56° C | 76% | 1011.1 hPa | 0 mm | 0.89 m/s, 8° | - | - |
| 1778042689 | 20.56° C | 75% | 1011 hPa | 0 mm | 0.45 m/s, 58° | - | - |
| 1778042389 | 20.56° C | 75% | 1011 hPa | 0 mm | 0.89 m/s, 165° | - | - |
| 1778042089 | 20.56° C | 75% | 1011 hPa | 0 mm | 1.34 m/s, 116° | - | - |
| 1778041789 | 20.56° C | 74% | 1011 hPa | 0 mm | 1.34 m/s, 210° | - | - |
| 1778041489 | 20.56° C | 74% | 1011.1 hPa | 0 mm | 0.45 m/s, 75° | - | - |
| 1778041188 | 20.56° C | 73% | 1011.1 hPa | 0 mm | 0.89 m/s, 118° | - | - |
| 1778040888 | 20.56° C | 73% | 1011.1 hPa | 0 mm | 0.89 m/s, 69° | - | - |
| 1778040588 | 20.56° C | 72% | 1011.2 hPa | 0 mm | 1.34 m/s, 70° | - | - |
| 1778040288 | 20.56° C | 72% | 1011 hPa | 0 mm | 0.89 m/s, 34° | - | - |
| 1778039988 | 20.56° C | 71% | 1011.1 hPa | 0 mm | 0.45 m/s, 251° | - | - |
| 1778039688 | 20.56° C | 71% | 1011 hPa | 0 mm | 0.45 m/s, 103° | - | - |
| 1778039387 | 20.56° C | 70% | 1011 hPa | 0 mm | 0.45 m/s, 90° | - | - |
| 1778039087 | 21.11° C | 70% | 1011 hPa | 0 mm | 0.89 m/s, 99° | - | - |
| 1778038787 | 21.11° C | 69% | 1011 hPa | 0 mm | 0.45 m/s, 303° | - | - |
| 1778038487 | 21.11° C | 69% | 1010.9 hPa | 0 mm | 0.45 m/s, 212° | - | - |
* Rain latest hour (hover to see other rain measurements)
** Current wind speed in m/s (hover to see current wind gust speed)